Powrót do katalogu

CZ-4 DEB

AktywnySSO
NORAD 28070·DEBRIS·🇨🇳 China

Wystrzelony Oct 14, 1999 z Taiyuan Satellite Launch Center

Loading…

Następne Przeloty (najbliższe 24 godziny)

TLE

ŚwieżeSource: Space-Track

Epoka: Sep 13, 2026, 09:50 UTC

1 28070U 99057NA  26256.41020803  .00001172  00000-0  24519-3 0  9991
2 28070  98.4311 316.5881 0059845  23.9191 336.4768 14.60659307267848

Śledź CZ-4 DEB w czasie rzeczywistym z AllMySat

Download on the App Store